Location: Rostock
(54.0884°N, 12.1234°E)
Time: 21:38:17
(UTC+01:00)

ISS - Pass Details

Date: 16 November 2017
Orbit: 401 x 407 km, 51.6° (Epoch: 25 November)

Event Time Altitude Azimuth Distance (km) Brightness Sun altitude
Exits shadow 05:38:26 12° 200° (SSW) 1,324 -1.4 -17.7°
Drops below altitude 10° 05:39:13 10° 187° (S) 1,451 -1.0 -17.6°
Sets 05:42:06 0° 158° (SSE) 2,305 0.4 -17.2°
